{"data":{"norad_id":57246,"intl_designator":"2023-094AE","name":"STARLINK-5049","alt_names":[],"object_type":"PAYLOAD","status":"ACTIVE","operator":null,"country":"US","launch_date":"2023-07-07","launch_site_code":"AFWTR","launch_vehicle":null,"mission":null,"orbit_class":"UNKNOWN","rcs_meters":null,"size_class":null,"mass_kg":null,"dimensions":null,"purposes":["comms"],"wikipedia_slug":null,"has_3d_model":false,"image_url":null,"decayed_at":null,"tle_current":{"epoch":"2026-09-20T00:10:35.944608Z","epoch_age_seconds":166873,"freshness":"FRESH","line1":"1 57246U 23094AE  26263.00736047 -.00000314  00000+0 -18910-5 0  9991","line2":"2 57246  43.0050   2.0318 0001715 282.8750  77.1910 15.27575131176969","mean_motion":15.27575131,"eccentricity":0.0001715,"inclination_deg":43.005,"raan_deg":2.0318,"arg_perigee_deg":282.875,"mean_anomaly_deg":77.191,"bstar":-1.891e-6,"rev_number":17696,"period_min":94.26704917992,"perigee_km":481.88697970012,"apogee_km":484.24037153186,"semimajor_km":6861.200675616,"source":"CELESTRAK","updated_at":"2026-09-21T09:00:33.590074Z"}}}